Simultaneous Nadir Overpasses (SNOs) Predictions

Prediction of SNOs near US between NOAA-19 and NPP Satellite Orbit:

Table of predicted SNOs near US for the next 10.0 days since TLE Epoch: 10/2/2012
Index Date (NOAA-19) Time (NOAA-19) NOAA-19 Lat,Lon Date (NPP) Time (NPP) NPP Lat,Lon Distance(km) Time Diff (sec)
1 10/09/2012 07:21:44 49.94, -76.39 10/09/2012 07:24:07 50.55, -79.58 237.43 143
2 10/09/2012 09:03:49 49.94,-101.91 10/09/2012 09:05:37 50.54,-104.96 227.47 108
3 10/09/2012 18:54:05 50.00, -90.77 10/09/2012 18:52:30 49.64, -92.72 144.81 95
4 10/09/2012 20:36:10 50.00,-116.29 10/09/2012 20:34:00 49.65,-118.10 134.70 130
5 10/10/2012 07:16:39 30.01, -80.61 10/10/2012 07:10:53 30.27, -81.86 123.50 346
6 10/10/2012 08:59:19 27.97,-106.69 10/10/2012 08:52:58 28.22,-107.79 111.30 381
